Marlinton, WV (24954)

9:57 AM EDT on August 30, 2016 (GMT -0400)
RAWS | | Change Station

Elev 3082 ft 38.22 °N, 80.04 °W | Updated 1 hour ago

Overcast
Overcast
63.0 °F
Feels Like 63.0 °F
N
0.0
Wind Variable Wind from North
Gusts 3.0 mph

Today
High -- | Low -- °F
--% Chance of Precip.
Yesterday
High -- | Low -- °F
Precip. -- in
Pressure 30.29 in
Visibility 10.0 miles
Clouds Mostly Cloudy 3300 ft
Overcast 4300 ft
Dew Point 62.0 °F
Humidity 96%
Rainfall in
Snow Depth Not available.
6:48 AM 7:52 PM
Waning Crescent, 3% visible
METAR KHSP 301335Z AUTO 07005KT 10SM BKN033 OVC043 21/16 A3029 RMK AO2 T02070156
Pressure 30.29 in
Visibility 10.0 miles
Clouds Mostly Cloudy 3300 ft
Overcast 4300 ft
Dew Point 62.0 °F
Humidity 96%
Rainfall in
Snow Depth Not available.
6:48 AM 7:52 PM
Waning Crescent, 3% visible
METAR KHSP 301335Z AUTO 07005KT 10SM BKN033 OVC043 21/16 A3029 RMK AO2 T02070156

10-Day Weather Forecast

Almanac

Astronomy

Aug. 30, 2016 Rise Set
Actual Time
Civil Twilight
Nautical Twilight
Astronomical Twilight
Moon
Length of Visible Light
Length of Day
Tomorrow will be .
, % of the Moon is Illuminated

Today's Extremes

State Highs State Lows

Community

WunderPhotos

Upload Photos

1,935,833 photos uploaded!

WunderBlog® & News

Nearby

Air Quality

  Air Quality AQ Index Pollutant
Not available.

Snow Depth

Station Depth Elevation

Earthquake Activity

City Distance Mag. Time & Date
Minimum magnitude displayed is 2.5.

Coastal Water Temperatures

Place Temperature

Stations

Nearby Weather Stations

Station Location Temp. Windchill Dew Point Humidity Wind Precip. Elev Updated Type
                   

Watches & Warnings

There are currently no watches in effect.